Regional Weather Roundup
Issued by NWS

Home | Current Version | Previous Version | Graphics & Text | Print | Product List | Glossary Off
Versions: 1 2 3 4 5 6 7 8 9 10 11 12 13 14 15 16 17 18 19 20 21 22 23 24 25 26 27 28 29 30 31 32 33 34 35 36 37 38 39 40 41 42 43 44 45 46 47 48 49 50

636
ASUS43 KMKX 221011
RWRWI

WISCONSIN REGIONAL WEATHER ROUNDUP
NATIONAL WEATHER SERVICE MILWAUKEE/SULLIVAN WI
400 AM CST WED NOV 22 2017

NOTE: "FAIR" INDICATES FEW OR NO CLOUDS BELOW 12,000 FEET WITH NO
SIGNIFICANT WEATHER AND/OR OBSTRUCTIONS TO VISIBILITY.

WIZ001-002-006>008-014>016-023>028-221100-
NORTHWEST WISCONSIN

CITY           SKY/WX    TMP DP  RH WIND       PRES   REMARKS
SUPERIOR ARPT  CLOUDY    15  10  79 W5        30.31F WCI   8
ASHLAND        CLOUDY    19  11  70 W8        30.29F WCI   9
HAYWARD        CLOUDY    16   9  74 CALM      30.29S
SIREN          CLOUDY    10   6  87 CALM      30.30F
CUMBERLAND     CLOUDY    16  10  79 CALM      30.28F
RICE LAKE      FLURRIES  14  10  85 W3        30.32F
CHETEK           N/A     10   8  89 CALM      30.31F
LADYSMITH      CLOUDY    14  10  82 W7        30.31R WCI   4
EAU CLAIRE     CLOUDY    12   7  80 CALM      30.33S
MENOMONIE      CLOUDY    15  10  81 CALM      30.33F
NEW RICHMOND   CLOUDY    12   8  85 W3        30.32F
OSCEOLA        CLOUDY    14  11  86 W6        30.36S WCI   5
$$

WIZ003>005-009-010-017-018-221100-
NORTH CENTRAL WISCONSIN

CITY           SKY/WX    TMP DP  RH WIND       PRES   REMARKS
MANITOWISH WTR FLURRIES  16  12  82 W6        30.21S WCI   8
ARBOR VITAE    FLURRIES  19  13  78 NW6       30.21S WCI  11
WOODRUFF       FLURRIES  19  13  78 NW6       30.21S WCI  11
RHINELANDER    CLOUDY    18  12  77 W8        30.21F WCI   8
EAGLE RIVER    FLURRIES  18  12  78 W6        30.19S WCI   9
LAND O LAKES   CLOUDY    18  14  84 W5        30.21R WCI  11
PHILLIPS       CLOUDY    15   9  77 CALM      30.24F
TOMAHAWK       CLOUDY    16  10  76 W6        30.24S WCI   7
MEDFORD        CLOUDY    16   9  72 N7        30.25S WCI   7
MERRILL        CLOUDY    18  10  71 W6        30.25F WCI  10
$$

WIZ029-030-035-036-043>047-221100-
CENTRAL WISCONSIN

CITY           SKY/WX    TMP DP  RH WIND       PRES   REMARKS
WAUSAU         CLOUDY    19  10  68 NW10      30.26S WCI   7
MOSINEE        CLOUDY    19  12  73 NW12      30.28R WCI   7
MARSHFIELD     CLOUDY    18  11  74 NW9       30.26S WCI   7
STEVENS POINT  CLOUDY    18  10  70 NW5       30.29R WCI  11
WAUPACA        CLOUDY    23  13  66 NW7       30.30R WCI  15
WAUTOMA        CLEAR     16  10  77 NW5       30.31R WCI   9
WISC RAPIDS    CLOUDY    15   8  73 N5        30.31R WCI   8
CAMP DOUGLAS   CLEAR     13   8  81 NW5       30.31S WCI   6
$$

WIZ011>013-019>022-031-037>040-048>050-221100-
NORTHEAST WISCONSIN

CITY           SKY/WX    TMP DP  RH WIND       PRES   REMARKS
ANTIGO         CLOUDY    18  12  79 W8        30.22F WCI   7
SHAWANO        CLOUDY    25  14  63 W5        30.27S WCI  19
OCONTO         CLOUDY    25  13  61 NW8       30.27R WCI  16
STURGEON BAY   CLOUDY    25  13  60 N13       30.25R WCI  14
GREEN BAY      CLOUDY    25  15  66 NW10      30.27R WCI  15
MANITOWOC      CLOUDY    25  15  66 NW7       30.28R WCI  17
APPLETON       MOCLDY    18  12  79 W7        30.26R WCI   8
CLINTONVILLE   CLOUDY    23  10  58 NW5       30.28R WCI  17
OSHKOSH        CLEAR     17  11  77 W7        30.28R WCI   8
$$

WIZ032>034-041-042-053>061-221100-
SOUTHWEST WISCONSIN

CITY           SKY/WX    TMP DP  RH WIND       PRES   REMARKS
LA CROSSE      CLEAR     19  11  70 N6        30.34F WCI  11
SPARTA         CLEAR     17  11  79 NW3       30.34S
VIROQUA        CLEAR     18  13  84 N6        30.29S WCI   9
BOSCOBEL       CLEAR     19  11  70 CALM      30.34S
PRAIRIE DU CHI CLOUDY    20  12  69 NW6       30.34S WCI  13
PLATTEVILLE    CLOUDY    18  14  87 W6        30.32R WCI   9
$$

WIZ056-057-062-063-064-067-068-221100-
SOUTH CENTRAL WISCONSIN

CITY           SKY/WX    TMP DP  RH WIND       PRES   REMARKS
REEDSBURG      CLEAR     19  11  72 NW7       30.31R WCI   9
BARABOO/DELLS  CLEAR     19  11  70 N5        30.30R WCI  12
LONE ROCK      PTCLDY    17  12  80 W6        30.33R WCI   9
MINERAL POINT  CLEAR     21  16  79 NW3       30.29R
MADISON        CLEAR     19  11  70 CALM      30.29R
MIDDLETON      CLEAR     21  14  73 NW5       30.30R WCI  15
WATERTOWN      CLEAR     18  14  82 NW3       30.29R
MONROE         CLEAR     21  14  73 W9        30.28R WCI  11
JANESVILLE     CLEAR     21  16  79 CALM      30.30R
$$

WIZ051-052-058>065-066-070>072-221100-
SOUTHEAST WISCONSIN

CITY           SKY/WX    TMP DP  RH WIND       PRES   REMARKS
MILWAUKEE      CLEAR     23  14  68 NW6       30.28R WCI  16
WAUKESHA       CLEAR     19  12  73 NW7       30.29R WCI  10
MILWAUKEE/TIMM CLEAR     19  12  73 NW7       30.29R WCI  10
RACINE         CLEAR     21  13  71 W6        30.30R WCI  13
BURLINGTON     CLEAR     21  19  89 CALM      30.29R
KENOSHA        CLEAR     19  13  77 W5        30.29R WCI  12
FOND DU LAC    CLEAR     19  11  70 NW9       30.29R WCI   8
SHEBOYGAN      CLEAR     21  13  71 NW5       30.27R WCI  15
WEST BEND      CLEAR     19  12  73 NW5       30.27R WCI  13
JUNEAU         CLEAR     18  13  78 CALM      30.29R
$$

LSZ147-162-221100-
LAKE SUPERIOR

STATION/POSITION TIME  TEMP    WIND        PRES    WAVE
                       AIR SEA DIR/SP/G            HT/PER
                 (UTC) (F)     (DEG/KT/KT) (MB)    (FT/S)
DEVILS ISLAND    1000   22     270/ 11/ 13 1026.0F
SAXON HARBOR     0940   21     240/  5/ 10 1024.7F
$$

LMZ867-665-643>646-221100-
LAKE MICHIGAN

STATION/POSITION TIME  TEMP    WIND        PRES    WAVE
                       AIR SEA DIR/SP/G            HT/PER
                 (UTC) (F)     (DEG/KT/KT) (MB)    (FT/S)
N MID LAKE BUOY  0950   28 47  300/ 17/ 23 1023.8R   3/ 5
NORTHPORT PIER   0949   27     320/ 15/ 21 1023.4R
KEWAUNEE LAKESHO 0948   26     340/  6/  8 1023.7R
SHEBOYGAN LAKESH 1000   25     320/  9/ 10 1026.2R
PORT WASHINGTON  0940   22     300/  4/  6 1026.4R
MILWAUKEE LAKESH 0950   24     310/  8/  9   N/A
S MID LAKE BUOY  0850   31 47  350/ 14/ 17 1024.5R   5/ 7
KENOSHA   LAKESH 1000   22     280/  8/  9 1025.7
$$

TC  - TEMPERATURE IN CELSIUS
VSB - VISIBILITY IN STATUTE MILES
WCI - WIND CHILL INDEX
HX  - HEAT INDEX





USA.gov is the U.S. government's official web portal to all federal, state and local government web resources and services.